Regional Weather Roundup
Issued by NWS Cleveland, OH

Home | Current Version | Previous Version | Text Only | Print | Product List | Glossary Off
Versions: 1 2 3 4 5 6 7 8 9 10 11 12 13 14 15 16 17 18 19 20 21 22 23 24 25 26 27 28 29 30 31 32 33 34 35 36 37 38 39 40 41 42 43 44 45 46 47 48 49 50

243
ASUS41 KCLE 281512
RWRCLE
OHIO REGIONAL WEATHER ROUNDUP
NATIONAL WEATHER SERVICE WILMINGTON, OH
1100 AM EDT SUN AUG 28 2016

NOTE: "FAIR" INDICATES FEW OR NO CLOUDS BELOW 12,000 FEET WITH NO
SIGNIFICANT WEATHER AND/OR OBSTRUCTIONS TO VISIBILITY.

OHZ001>008-015>018-024>027-034-035-043-044-281600-
   NORTHWEST OHIO

CITY           SKY/WX    TMP DP  RH WIND       PRES   REMARKS
DEFIANCE       FAIR      81  73  76 CALM      30.20F
FINDLAY        FAIR      83  72  69 W5        30.21S
TOLEDO EXPRESS FAIR      80  75  84 NW6       30.20S
TOLEDO EXEC    FAIR      83  75  77 W6        30.20S HX  90
LIMA           FAIR      81  75  82 CALM      30.23S
$$

OHZ009>014-019>023-028>033-038-089-281600-
   NORTHEAST OHIO

CITY           SKY/WX    TMP DP  RH WIND       PRES   REMARKS
CLE-HOPKINS    FAIR      83  71  67 W5        30.23S
CLE-LAKEFRONT  FAIR      80  72  76 NW6       30.20R
CUY CO. ARPT   MOSUNNY   81  75  83 W6        30.22S
LORAIN-ELYRIA  FAIR      80  73  79 SW3       30.22R
ASHTABULA      FAIR      79  73  82 CALM      30.22S
AKRON-CANTON   PTSUNNY   77  69  76 CALM      30.24S
WOOSTER        FAIR      78  71  79 CALM      30.25R
MANSFIELD      FAIR      82  71  69 CALM      30.25R
YOUNGSTOWN     PTSUNNY   79  68  69 CALM      30.23S
$$

OHZ042-051>053-060>062-070>072-077>081-281600-
  SOUTHWEST OHIO

CITY           SKY/WX    TMP DP  RH WIND       PRES   REMARKS
CINC-COVINGTON FAIR      85  71  63 N6        30.22S HX  90
CINC-LUNKEN    NOT AVBL
HAMILTON       FAIR      85  71  63 N5        30.22S HX  90
DAYTON         FAIR      82  71  69 N3        30.25R
WRIGHT-PAT AFB FAIR      81  71  73 VRB2      30.23R
DAYTON GENERAL FAIR      84  69  60 NE6       30.22S
WILMINGTON     FAIR      83  70  64 NE7       30.23R
$$

OHZ036-037-039>041-045>050-054>059-063>069-073>076-082>088-281600-
  CENTRAL AND SOUTHEAST OHIO

CITY           SKY/WX    TMP DP  RH WIND       PRES   REMARKS
COLUMBUS       FAIR      81  68  64 N5        30.22S
OSU AIRPORT    FAIR      82  70  66 CALM      30.23S
BOLTON FIELD   SUNNY     82  70  65 CALM      30.23F
RICKENBACK AFB FAIR      80  70  71 NE5       30.22S
NEWARK         FAIR      82  67  60 VRB5      30.23S
MARION         FAIR      81  71  71 CALM      30.24R
LANCASTER      FAIR      83  70  64 N7        30.23S
ZANESVILLE     FAIR      82  70  66 N6        30.23S
NEW PHILLY     FAIR      85  67  54 CALM      30.23F
$$




USA.gov is the U.S. government's official web portal to all federal, state and local government web resources and services.